Simultaneous Nadir Overpasses (SNOs) Predictions

Prediction of SNOs between METOP-B and NOAA-19 Satellite Orbit:

Table of predicted SNOs for the next 14.0 days since TLE Epoch: 3/15/2019
Index Date (METOP-B) Time (METOP-B) Lat,Lon (METOP-B) SZA (METOP-B ) Date (NOAA-19) Time (NOAA-19) Lat,Lon (NOAA-19) SZA (NOAA-19 ) Distance(km) Time Diff (sec)
1 03/17/2019 13:59:43 -79.09, 164.66 99.40 03/17/2019 13:58:36 -79.08, 164.57 99.42 2.18 67
2 03/17/2019 14:50:24 79.08, -28.10 80.58 03/17/2019 14:49:35 79.07, -28.07 80.56 1.00 49
3 03/17/2019 15:41:05 -79.08, 139.23 99.44 03/17/2019 15:40:36 -79.05, 139.31 99.47 3.11 29
4 03/17/2019 16:31:46 79.06, -53.53 80.53 03/17/2019 16:31:36 79.07, -53.59 80.54 1.57 10
5 03/17/2019 17:22:27 -79.06, 113.80 99.49 03/17/2019 17:22:37 -79.06, 113.78 99.49 0.88 10
6 03/17/2019 18:13:08 79.05, -78.97 80.49 03/17/2019 18:13:36 79.04, -78.85 80.49 2.59 28
7 03/17/2019 19:03:49 -79.05, 88.36 99.53 03/17/2019 19:04:38 -79.06, 88.26 99.52 2.39 49
8 03/17/2019 19:54:30 79.04,-104.40 80.44 03/17/2019 19:55:37 79.04,-104.37 80.46 1.05 67
9 03/28/2019 12:41:09 79.13, 4.58 76.38 03/28/2019 12:39:55 79.17, 3.96 76.38 13.51 74
10 03/28/2019 13:31:51 -79.10, 171.68 103.68 03/28/2019 13:30:52 -79.11, 171.71 103.67 1.53 59
11 03/28/2019 14:22:32 79.08, -21.11 76.29 03/28/2019 14:21:54 79.11, -21.03 76.32 3.59 38
12 03/28/2019 15:13:13 -79.08, 146.25 103.72 03/28/2019 15:12:53 -79.11, 146.18 103.70 3.55 20
13 03/28/2019 16:03:53 79.10, -46.30 76.29 03/28/2019 16:03:54 79.08, -46.29 76.27 2.61 1
14 03/28/2019 16:54:35 -79.07, 120.81 103.77 03/28/2019 16:54:53 -79.08, 120.92 103.75 2.73 18
15 03/28/2019 17:45:15 79.09, -71.73 76.25 03/28/2019 17:45:55 79.08, -71.81 76.24 1.84 40
16 03/28/2019 18:35:57 -79.05, 95.38 103.81 03/28/2019 18:36:54 -79.09, 95.39 103.77 3.45 57




NCC Satellite Simultaneous Nadir Overpasses (SNOs) Prediction Service
